This demonstration page uses our WeatherBlox Daily Observations layout. Learn more.

Left ArrowRight Arrow

39.92423, -83.80882

Hourly Observations for July 24, 2021

Temp ( °F °C ) Dew Point ( °F °C ) Humidity (%) Winds ( mph kmh ) Pressure ( in mb ) Visibility ( mi km ) Precip ( " mm )
12:56 am 00:56 Partly Cloudy 70 21.1 66 18.9 87 87 N N/A 30.10 1019 10 16 N/A
1:56 am 01:56 Cloudy 69 20.6 68 20 96 96 N N/A 30.09 1019 10 16 N/A
2:56 am 02:56 Mostly Clear 68 20 N/A N/A N N/A 30.07 1018 10 16 N/A
3:56 am 03:56 Clear 66 19 N/A N/A N N/A 30.07 1018 10 16 N/A
4:56 am 04:56 Partly Cloudy 67 19.4 67 19.4 100 100 S 3 6 30.06 1018 10 16 N/A
5:56 am 05:56 Mostly Clear 64 18 N/A N/A SSW 3 6 30.06 1018 10 16 N/A
6:56 am 06:56 Sunny 64 18 N/A N/A N N/A 30.06 1018 10 16 N/A
7:56 am 07:56 Sunny 67 19.4 67 19.4 100 100 SSW 5 7 30.07 1018 10 16 N/A
8:56 am 08:56 Sunny 71 21.7 66 18.9 84 84 SW 9 15 30.07 1018 10 16 N/A
9:56 am 09:56 Sunny 74 23.3 67 19.4 79 79 SW 8 13 30.07 1018 10 16 N/A
10:56 am 10:56 Sunny 77 25 68 20 74 74 SW 7 11 30.07 1018 10 16 N/A
11:56 am 11:56 Sunny 79 26.1 69 20.6 72 72 SW 6 9 30.06 1018 10 16 N/A
12:56 pm 12:56 Sunny 81 27.2 70 21.1 69 69 S 3 6 30.05 1018 10 16 N/A
1:56 pm 13:56 Mostly Sunny 82 27.8 72 22.2 72 72 SSW 8 13 30.03 1017 10 16 N/A
2:56 pm 14:56 Mostly Sunny 83 28.3 72 22.2 70 70 S 9 15 30.01 1016 10 16 N/A
3:56 pm 15:56 Mostly Sunny 84 28.9 71 21.7 65 65 S 9 15 29.98 1015 10 16 N/A
4:56 pm 16:56 Sunny 84 28.9 71 21.7 65 65 S 8 13 29.96 1015 10 16 N/A
5:56 pm 17:56 Sunny 83 28.3 70 21.1 65 65 SSW 6 9 29.95 1014 10 16 N/A
6:56 pm 18:56 Partly Cloudy 82 27.8 72 22.2 72 72 SSW 5 7 29.94 1014 10 16 N/A
7:56 pm 19:56 Cloudy 80 26.7 70 21.1 71 71 SSW 6 9 29.93 1014 10 16 N/A
8:56 pm 20:56 Partly Cloudy 78 25.6 70 21.1 76 76 SSW 5 7 29.92 1013 10 16 N/A
9:56 pm 21:56 Clear 75 23.9 72 22.2 90 90 SSW 5 7 29.91 1013 10 16 N/A
10:56 pm 22:56 Clear 74 23.3 73 22.8 97 97 SSW 7 11 29.93 1014 10 16 N/A
11:56 pm 23:56 Clear 74 23.3 73 22.8 97 97 SSW 6 9 29.93 1014 10 16 N/A

Powered by AerisWeather